Date String (YYYY-MM-DD hh:mm:ss) UTC,Instrument flags,Ambient pressure (hPa),Sample flow (lpm),Bypass flow (lpm),Sample temperature (°C),Ambient temperature (°C),ASC tube jacket temperature (°C),LED temperature (°C),Box temperature (°C),Sample RH (%),Span deviation,Mass concentration (μg/m³),Mass concentration (μg/m³),Mass concentration (μg/m³)
DateTimeUTC,F1_M11,P_M11,Q1_M11,Q2_M11,T1_M11,T2_M11,T3_M11,T4_M11,T5_M11,U1_M11,ZSPAN_M11,X0_M11,X2_M11,X1_M11
2022-03-05 18:00:00,,0818.7,5.00,0.00,22.8,22.0,00.0,31.8,24.5,13.2,0000.0,0004.31,0002.28,0001.99
2022-03-05 18:01:00,,0818.7,5.01,0.00,22.8,22.0,00.0,31.8,24.5,13.2,0000.0,0004.34,0002.29,0002.00
2022-03-05 18:02:00,,0818.8,5.00,0.00,22.8,22.0,00.0,31.8,24.5,13.2,0000.0,0004.12,0002.29,0002.00
2022-03-05 18:03:00,,0818.8,5.00,0.00,22.7,22.0,00.0,31.8,24.5,13.4,0000.0,0003.02,0002.30,0002.01
2022-03-05 18:04:00,,0818.8,5.01,0.00,22.7,22.0,00.0,31.8,24.5,13.5,0000.0,0003.10,0002.33,0002.00
2022-03-05 18:05:00,,0818.8,4.99,0.00,22.7,22.0,00.0,31.8,24.4,13.4,0000.0,0003.24,0002.35,0001.98
2022-03-05 18:06:00,,0818.8,5.00,0.00,22.7,22.0,00.0,31.8,24.4,13.3,0000.0,0004.57,0002.34,0001.99
2022-03-05 18:07:00,,0818.8,5.00,0.00,22.7,21.9,00.0,31.7,24.4,13.2,0000.0,0004.63,0002.36,0001.99
2022-03-05 18:08:00,,0818.9,5.00,0.00,22.7,21.9,00.0,31.7,24.4,13.2,0000.0,0004.62,0002.35,0001.98
2022-03-05 18:09:00,,0818.8,4.99,0.00,22.7,21.9,00.0,31.7,24.4,13.2,0000.0,0004.57,0002.35,0001.98
2022-03-05 18:10:00,,0818.8,5.01,0.00,22.7,21.9,00.0,31.7,24.4,13.4,0000.0,0004.61,0002.39,0001.99
2022-03-05 18:11:00,,0818.8,5.00,0.00,22.6,21.9,00.0,31.7,24.3,13.3,0000.0,0004.54,0002.37,0001.99
2022-03-05 18:12:00,,0818.8,4.99,0.00,22.6,21.9,00.0,31.7,24.3,13.2,0000.0,0004.58,0002.36,0001.96
2022-03-05 18:13:00,,0818.8,5.00,0.00,22.6,21.8,00.0,31.7,24.3,12.9,0000.0,0004.59,0002.32,0001.92
2022-03-05 18:14:00,,0818.8,5.01,0.00,22.6,21.8,00.0,31.7,24.2,12.7,0000.0,0004.72,0002.29,0001.91
2022-03-05 18:15:00,,0818.8,5.00,0.00,22.6,22.0,00.0,31.7,24.3,12.6,0000.0,0004.69,0002.27,0001.92
2022-03-05 18:16:00,,0818.9,4.98,0.00,22.7,22.7,00.0,31.7,24.5,12.7,0000.0,0004.72,0002.28,0001.93
2022-03-05 18:17:00,,0819.0,5.01,0.00,22.8,23.3,00.0,31.8,24.8,12.7,0000.0,0003.46,0002.27,0001.91
2022-03-05 18:18:00,,0818.8,4.99,0.00,22.9,23.2,00.0,31.8,24.9,12.6,0000.0,0003.45,0002.28,0001.90
2022-03-05 18:19:00,,0818.8,5.01,0.00,22.9,23.0,00.0,31.8,24.8,12.8,0000.0,0003.52,0002.28,0001.89
2022-03-05 18:20:00,,0818.8,5.00,0.00,22.9,22.8,00.0,31.8,24.8,13.0,0000.0,0004.35,0002.28,0001.87
2022-03-05 18:21:00,,0818.8,5.00,0.00,22.9,22.7,00.0,31.8,24.7,12.9,0000.0,0004.28,0002.25,0001.87
2022-03-05 18:22:00,,0818.8,5.01,0.00,22.9,22.6,00.0,31.8,24.7,12.9,0000.0,0004.28,0002.25,0001.87
2022-03-05 18:23:00,,0818.9,5.00,0.00,22.9,22.5,00.0,31.8,24.7,13.1,0000.0,0004.29,0002.27,0001.89
2022-03-05 18:24:00,,0818.9,5.00,0.00,22.9,22.4,00.0,31.8,24.6,13.2,0000.0,0004.61,0002.39,0001.94
2022-03-05 18:25:00,,0818.9,5.00,0.00,22.9,22.3,00.0,31.8,24.6,13.2,0000.0,0004.67,0002.44,0001.98
2022-03-05 18:26:00,,0819.0,5.00,0.00,22.8,22.3,00.0,31.8,24.5,13.0,0000.0,0004.76,0002.50,0002.01
2022-03-05 18:27:00,,0819.0,5.01,0.00,22.8,22.2,00.0,31.8,24.5,12.8,0000.0,0004.78,0002.56,0002.04
2022-03-05 18:28:00,,0818.9,4.98,0.00,22.8,22.1,00.0,31.8,24.5,12.7,0000.0,0004.82,0002.62,0002.08
2022-03-05 18:29:00,,0818.9,5.02,0.00,22.8,22.1,00.0,31.8,24.5,12.5,0000.0,0004.83,0002.67,0002.11
2022-03-05 18:30:00,,0818.9,5.00,0.00,22.7,22.1,00.0,31.8,24.4,12.7,0000.0,0004.82,0002.73,0002.15
2022-03-05 18:31:00,,0819.0,5.00,0.00,22.7,22.0,00.0,31.8,24.4,12.7,0000.0,0004.14,0002.75,0002.18
2022-03-05 18:32:00,,0819.0,5.00,0.00,22.7,22.0,00.0,31.8,24.4,12.5,0000.0,0004.12,0002.76,0002.21
2022-03-05 18:33:00,,0818.9,5.02,0.00,22.7,21.9,00.0,31.8,24.3,12.7,0000.0,0004.19,0002.80,0002.25
2022-03-05 18:34:00,,0818.9,4.99,0.00,22.6,21.9,00.0,31.8,24.3,12.5,0000.0,0004.21,0002.83,0002.28
2022-03-05 18:35:00,,0818.9,5.00,0.00,22.6,21.9,00.0,31.7,24.3,12.5,0000.0,0003.86,0002.77,0002.31
2022-03-05 18:36:00,,0818.9,5.00,0.00,22.6,21.9,00.0,31.7,24.3,12.9,0000.0,0003.81,0002.81,0002.32
2022-03-05 18:37:00,,0818.9,5.01,0.00,22.6,21.8,00.0,31.7,24.3,12.8,0000.0,0003.80,0002.83,0002.35
2022-03-05 18:38:00,,0818.9,4.99,0.00,22.6,21.8,00.0,31.7,24.3,12.6,0000.0,0003.80,0002.83,0002.38
2022-03-05 18:39:00,,0819.0,5.00,0.00,22.6,21.8,00.0,31.7,24.3,12.8,0000.0,0003.88,0002.85,0002.41
2022-03-05 18:40:00,,0819.0,4.99,0.00,22.6,21.8,00.0,31.7,24.3,13.1,0000.0,0003.87,0002.85,0002.43
2022-03-05 18:41:00,,0819.0,5.02,0.00,22.6,21.8,00.0,31.7,24.3,13.3,0000.0,0003.93,0002.88,0002.47
2022-03-05 18:42:00,,0819.0,4.99,0.00,22.5,21.8,00.0,31.6,24.3,13.3,0000.0,0003.89,0002.92,0002.50
2022-03-05 18:43:00,,0819.0,4.99,0.00,22.5,21.8,00.0,31.6,24.2,13.4,0000.0,0004.06,0002.96,0002.52
2022-03-05 18:44:00,,0819.0,4.99,0.00,22.5,21.8,00.0,31.6,24.2,13.3,0000.0,0004.13,0002.97,0002.52
2022-03-05 18:45:00,,0819.0,5.00,0.00,22.5,21.9,00.0,31.6,24.2,12.9,0000.0,0004.16,0002.99,0002.55
2022-03-05 18:46:00,,0819.1,5.00,0.00,22.6,22.4,00.0,31.7,24.4,12.8,0000.0,0004.17,0003.00,0002.58
2022-03-05 18:47:00,,0819.1,5.02,0.00,22.7,23.2,00.0,31.7,24.7,12.6,0000.0,0004.84,0003.01,0002.62
2022-03-05 18:48:00,,0819.1,4.99,0.00,22.9,23.3,00.0,31.7,24.8,12.4,0000.0,0004.76,0003.00,0002.64
2022-03-05 18:49:00,,0819.1,5.01,0.00,22.9,23.1,00.0,31.7,24.8,12.6,0000.0,0004.61,0002.96,0002.64
2022-03-05 18:50:00,,0819.0,4.99,0.00,22.9,22.9,00.0,31.8,24.8,12.9,0000.0,0004.55,0002.95,0002.65
2022-03-05 18:51:00,,0819.0,5.00,0.00,22.9,22.8,00.0,31.8,24.7,12.9,0000.0,0004.57,0002.98,0002.69
2022-03-05 18:52:00,,0819.0,5.00,0.00,22.9,22.7,00.0,31.8,24.7,12.9,0000.0,0004.58,0003.04,0002.74
2022-03-05 18:53:00,,0819.0,5.00,0.00,22.9,22.6,00.0,31.8,24.7,12.8,0000.0,0004.56,0003.06,0002.80
2022-03-05 18:54:00,,0819.0,5.01,0.00,22.9,22.5,00.0,31.8,24.7,12.8,0000.0,0004.48,0003.09,0002.83
2022-03-05 18:55:00,,0819.0,4.99,0.00,22.9,22.4,00.0,31.8,24.6,12.8,0000.0,0004.43,0003.12,0002.87
2022-03-05 18:56:00,,0819.1,5.01,0.00,22.9,22.3,00.0,31.8,24.6,12.5,0000.0,0004.50,0003.16,0002.91
2022-03-05 18:57:00,,0819.1,5.00,0.00,22.8,22.3,00.0,31.8,24.6,12.5,0000.0,0004.58,0003.19,0002.94
2022-03-05 18:58:00,,0819.2,5.01,0.00,22.8,22.2,00.0,31.8,24.6,12.6,0000.0,0004.07,0003.22,0002.98
2022-03-05 18:59:00,,0819.2,5.01,0.00,22.8,22.2,00.0,31.8,24.6,12.4,0000.0,0004.13,0003.27,0003.02
